Regional Weather Roundup
Issued by NWS Cleveland, OH

Home | Current Version | Previous Version | Text Only | Print | Product List | Glossary On
Versions: 1 2 3 4 5 6 7 8 9 10 11 12 13 14 15 16 17 18 19 20 21 22 23 24 25 26 27 28 29 30 31 32 33 34 35 36 37 38 39 40 41 42 43 44 45 46 47 48 49 50
000
ASUS41 KCLE 250302
RWRCLE
OHIO REGIONAL WEATHER ROUNDUP
NATIONAL WEATHER SERVICE CLEVELAND, OH
1100 PM EDT MON JUL 24 2017

NOTE: "FAIR" INDICATES FEW OR NO CLOUDS BELOW 12,000 FEET WITH NO
SIGNIFICANT WEATHER AND/OR OBSTRUCTIONS TO VISIBILITY.

OHZ001>008-015>018-024>027-034-035-043-044-250400-
   NORTHWEST OHIO

CITY           SKY/WX    TMP DP  RH WIND       PRES   REMARKS
DEFIANCE       CLEAR    N/A N/A N/A N3        30.10R
FINDLAY        CLEAR     63  56  78 CALM      30.08R
TOLEDO EXPRESS CLEAR     60  55  83 CALM      30.09R
TOLEDO EXEC    CLEAR     66  56  70 CALM      30.10R
LIMA           CLEAR     59  59 100 CALM      30.10R
$$

OHZ009>014-019>023-028>033-038-089-250400-
   NORTHEAST OHIO

CITY           SKY/WX    TMP DP  RH WIND       PRES   REMARKS
CLE-HOPKINS    PTCLDY    68  53  58 N20G28    30.08R
CLE-LAKEFRONT  PTCLDY    68  55  63 N22       30.05R
CUY CO. ARPT   MOCLDY    64  55  72 N16       30.07R
LORAIN-ELYRIA  CLEAR     64  51  62 N7        30.08R
ASHTABULA      CLOUDY    64  56  75 NW6       30.04R
AKRON-CANTON   PTCLDY    64  52  64 N9        30.07R
WOOSTER        CLEAR     60  57  89 N6        30.08R
MANSFIELD      CLEAR     60  59  96 NW3       30.09R
YOUNGSTOWN     CLOUDY    64  55  72 NW13      30.04R
$$

OHZ042-051>053-060>062-070>072-077>081-250400-
  SOUTHWEST OHIO

CITY           SKY/WX    TMP DP  RH WIND       PRES   REMARKS
CINC-COVINGTON CLEAR     73  64  73 NE13      30.06R
CINC-LUNKEN    CLEAR     70  64  81 NE7       30.06R
HAMILTON       CLEAR     69  62  78 N6        30.08R
DAYTON         CLEAR     63  57  81 NE6       30.10R
WRIGHT-PAT AFB CLEAR     65  60  82 N6        30.09R
DAYTON GENERAL CLEAR     66  58  75 NE9       30.08R
WILMINGTON     CLEAR     63  62  97 NE6       30.08R
$$

OHZ036-037-039>041-045>050-054>059-063>069-073>076-082>088-250400-
  CENTRAL AND SOUTHEAST OHIO

CITY           SKY/WX    TMP DP  RH WIND       PRES   REMARKS
COLUMBUS       PTCLDY    66  60  81 N5        30.07R
OSU AIRPORT    CLEAR     64  60  87 N5        30.08R
BOLTON FIELD   NOT AVBL
RICKENBACK AFB CLEAR     67  59  76 N7        30.07R
NEWARK         CLEAR     65  59  81 CALM      30.07R
MARION         CLEAR     63  58  83 CALM      30.09R
LANCASTER      CLEAR     64  60  87 N3        30.08R
ZANESVILLE     CLEAR     65  59  81 N5        30.07R
NEW PHILLY     NOT AVBL
$$




USA.gov is the U.S. government's official web portal to all federal, state and local government web resources and services.